Location: Cambroso
(45.2833°N, 12.0850°E)
Time: 19:58:56
(UTC+00:00)

Iridium 4 Rocket - Pass Details

Date: 21 January 2021
Orbit: 583 x 906 km, 86.9° (Epoch: 03 March)

Event Time Altitude Azimuth Distance (km) Brightness Sun altitude
Rises 17:55:43 0° 359° (N) 3,491 6.8 -19.5°
Reaches altitude 10° 17:58:16 10° 3° (N) 2,517 6.1 -19.9°
Maximum altitude 18:03:56 65° 85° (E) 901 3.5 -20.9°
Drops below altitude 10° 18:09:06 10° 167° (SSE) 2,307 5.9 -21.8°
Sets 18:11:21 0° 170° (S) 3,179 6.7 -22.2°
